Volver al catálogo

NOAA 16 DEB

ActivoSSO
NORAD 41243·DEBRIS·🇺🇸 United States

Lanzado Sep 21, 2000 desde Vandenberg Space Force Base

Loading…

Próximos Pases (próximas 24 horas)

TLE

ActualizadoSource: Space-Track

Época: Sep 13, 2026, 04:38 UTC

1 41243U 00055ET  26256.19366030  .00002005  00000-0  81289-3 0  9991
2 41243  98.7249 339.7882 0005532 150.2565 209.8932 14.28829537552716

Sigue NOAA 16 DEB en tiempo real con AllMySat

Download on the App Store